Location: Cella
(44.7333°N, 10.5667°E)
Time: 16:55:22
(UTC+00:00)

Cosmos 2219 Rocket - Visible Passes

Search period start: 24 June 2021 00:00
Search period end: 04 July 2021 00:00
Orbit: 827 x 847 km, 71.0° (Epoch: 23 June)

Date Brightness Start Highest point End Pass type
(mag) Time Alt. Az. Time Alt. Az. Time Alt. Az.
24 Jun 3.5 20:55:22 10° SW 21:00:44 42° WNW 21:06:08 10° NNE visible
25 Jun 3.4 20:38:53 10° SW 20:44:19 45° WNW 20:49:45 10° NNE visible
25 Jun 5.5 22:29:10 10° NW 22:29:49 10° NW 22:30:28 10° NNW visible
26 Jun 3.3 20:22:24 10° SW 20:27:53 48° WNW 20:33:22 10° NNE visible
26 Jun 5.4 22:11:56 10° NW 22:13:19 11° NW 22:14:41 10° NNW visible
27 Jun 3.2 20:05:55 10° SW 20:11:27 52° WNW 20:17:00 10° NNE visible
27 Jun 5.4 21:54:58 10° NW 21:56:49 11° NW 21:58:39 10° NNW visible
28 Jun 3.1 19:49:27 10° SW 19:55:01 55° WNW 20:00:37 10° NNE visible
28 Jun 5.4 21:38:07 10° WNW 21:40:18 12° NW 21:42:30 10° NNW visible
29 Jun 5.3 02:58:00 10° N 03:01:56 19° NE 03:05:50 10° E visible
29 Jun 3.0 19:33:00 10° SW 19:38:36 60° WNW 19:44:13 10° NNE visible
29 Jun 5.4 21:21:18 10° WNW 21:23:49 13° NW 21:26:19 10° NNW visible
30 Jun 5.4 02:41:42 10° N 02:45:28 18° NE 02:49:12 10° E visible
30 Jun 5.4 21:04:32 10° WNW 21:07:19 14° NW 21:10:06 10° N visible
01 Jul 5.4 02:25:24 10° N 02:28:59 17° NE 02:32:33 10° E visible
01 Jul 5.4 20:47:49 10° WNW 20:50:50 14° NW 20:53:51 10° N visible
02 Jul 5.4 02:09:07 10° N 02:12:30 16° NE 02:15:52 10° E visible
02 Jul 5.5 20:31:07 10° WNW 20:34:20 15° NW 20:37:35 10° N visible
03 Jul 5.4 01:52:50 10° N 01:56:01 15° NE 01:59:10 10° ENE visible
03 Jul 5.5 20:14:25 10° W 20:17:52 16° NW 20:21:19 10° N visible
